Back to catalog

WORLDVIEW 2

AliveScienceSSO
NORAD 35946·PAYLOAD·🇺🇸 United States

Launched Oct 8, 2009 from Vandenberg Space Force Base

Loading…

Next Passes (next 24 hours)

TLE

FreshSource: Space-Track

Epoch: Sep 14, 2026, 13:56 UTC

1 35946U 09055A   26257.58116763  .00000069  00000-0  37337-4 0  9997
2 35946  98.4722 329.8025 0003554 329.3316  30.7663 14.37920019888492

Track WORLDVIEW 2 in real time with AllMySat

Download on the App Store